Regional Weather Roundup
Issued by NWS

Current Version | Previous Version | Text Only | Print | Product List | Glossary On
Versions: 1 2 3 4 5 6 7 8 9 10 11 12 13 14 15 16 17 18 19 20 21 22 23 24 25 26 27 28 29 30 31 32 33 34 35 36 37 38 39 40 41 42 43 44 45 46 47 48 49 50
000
ASUS44 KFWD 271415
RWRTX
NORTH TEXAS HOURLY WEATHER ROUNDUP
NATIONAL WEATHER SERVICE FORT WORTH TX
900 AM CDT MON MAR 27 2017

NOTE: "FAIR" INDICATES FEW OR NO CLOUDS BELOW 12,000 FEET WITH NO
SIGNIFICANT WEATHER AND/OR OBSTRUCTIONS TO VISIBILITY.

TXZ118-119-271500-
DALLAS/FORT WORTH METROPLEX

CITY           SKY/WX    TMP DP  RH WIND       PRES   REMARKS
DFW AIRPORT    MOSUNNY   59  51  75 N16       29.89R
DALLAS LOVE    MOSUNNY   60  50  69 NW14      29.90R
FTW MEACHAM    SUNNY     57  48  72 NW14      29.91R
DAL-EXECUTIVE  MOSUNNY   60  51  72 NW15      29.89R
FTW-ALLIANCE   PTSUNNY   55  49  80 N15       29.91R
FTW-NAS-JRB    MOSUNNY   58  49  72 NW13      29.92R
FTW-SPINKS     PTSUNNY   59  48  67 NW9       29.92R
ARLINGTON      MOSUNNY   59  49  69 NW13      29.90R
GRAND PRAIRIE  MOSUNNY   59  48  67 NW9       29.91R
ADDISON        SUNNY     57  50  77 NW14G31   29.91R
MESQUITE       CLOUDY    63  52  67 NW13      29.89R
LANCASTER      CLOUDY    62  53  72 NW10      29.90R
$$

TXZ091>094-102>105-117-120-121-131>134-271500-
NORTH CENTRAL TEXAS

CITY           SKY/WX    TMP DP  RH WIND       PRES   REMARKS
SHRMAN/DENISON CLOUDY    55  52  89 NW10      29.91R
GAINESVILLE    CLOUDY    54  50  87 N14G21    29.92S
BOWIE          CLOUDY    54  51  92 N12       29.92R
BRIDGEPORT     CLOUDY    53  48  84 N10G16    29.94R
DECATUR        CLOUDY    52  49  89 N8        29.92R
DENTON         CLOUDY    53  50  89 NW13      29.91R
MCKINNEY       PTSUNNY   55  52  89 NW14      29.90R
BONHAM         CLOUDY    55  52  88 NW8G18    29.89R
GREENVILLE     CLOUDY    61  52  72 W10       29.89R
ROCKWALL       CLOUDY    60  52  74 NW10      29.89R
TERRELL        CLOUDY    67  64  90 SW9       29.87R
WAXAHACHIE     CLOUDY    62  53  72 NW10      29.90R
CLEBURNE       MOSUNNY   57  52  82 N13       29.93R
GRANBURY       SUNNY     57  48  71 NW12      29.94R
$$

TXZ083>090-098>101-113>116-127>130-139>142-154-155-271500-
WESTERN NORTH TEXAS

CITY           SKY/WX    TMP DP  RH WIND       PRES   REMARKS
WICHITA FALLS  MOSUNNY   52  47  83 N8        29.93R
WF-KICKAPOO    PTSUNNY   51  46  83 N9        29.95R
VERNON         SUNNY     51  40  66 N14       29.97R
ABILENE        SUNNY     49  41  74 NW13      29.99R
ABILENE-DYESS  SUNNY     50  41  70 NW12      29.98R
GRAHAM         SUNNY     52  47  82 NW7       29.94R
BRECKENRIDGE   SUNNY     55  44  67 NW7       29.97R
CISCO          SUNNY     50  45  81 NW9G17    29.96R
RANGER         SUNNY     52  45  76 N10       29.95R
MINERAL WELLS  SUNNY     54  47  77 NW10      29.92R
STEPHENVILLE   SUNNY     55  46  73 NW15      29.95R
COMANCHE       SUNNY     53  47  79 N12       29.95R
BROWNWOOD      SUNNY     54  45  71 N13G18    29.95R
COLEMAN        SUNNY     54  43  67 N12       29.96R
$$

TXZ143>147-156>162-174-175-271500-
CENTRAL TEXAS

CITY           SKY/WX    TMP DP  RH WIND       PRES   REMARKS
WACO           CLOUDY    68  66  93 NW13      29.89R FOG
WACO-TSTC      CLOUDY    68  66  94 S5        29.87  FOG
WACO-MCGREGOR  PTSUNNY   70  67  90 S5        29.88R FOG
HILLSBORO      CLOUDY    64  58  83 NW13      29.89R
CORSICANA      CLOUDY    65  64  97 S3        29.90R
MEXIA          CLOUDY    65  64  95 SW3       29.88R
HEARNE         PTSUNNY   67  67 100 S5        29.90R FOG
CAMERON        MOSUNNY   68  66  92 CALM      29.89R
TEMPLE         CLOUDY    68  67  96 SW3       29.89R
KILLEEN        CLOUDY    70  66  88 SW5       29.88R
KILLEEN-SKYLRK CLOUDY    70  67  90 W6        29.89R
FORT HOOD      CLOUDY    68  66  94 W6        29.86R
GATESVILLE     CLOUDY    61  55  82 N9        29.92R
HAMILTON       CLOUDY    56  50  79 NW12      29.93R
LAMPASAS       CLOUDY    68  67  98 CALM      29.89R FOG
$$

TXZ095>097-106>112-122>126-135>138-148>153-164>167-271500-
EAST TEXAS

CITY           SKY/WX    TMP DP  RH WIND       PRES   REMARKS
PARIS          PTSUNNY   64  57  77 W15       29.86R
SULPHUR SPRNGS CLOUDY    68  65  89 SW9       29.87R
MOUNT PLEASANT CLOUDY    68  63  84 S3        29.87R
GILMER         CLOUDY    67  64  87 S10       29.86S
MINEOLA        CLOUDY    68  64  88 S6        29.86R
TYLER          CLOUDY    69  66  90 SW14      29.87R
LONGVIEW       CLOUDY    70  67  90 S10       29.87R FOG
MARSHALL       MOSUNNY   70  65  83 SW6       29.89S
ATHENS         CLOUDY    64  64 100 CALM      29.88R
PALESTINE      CLOUDY    68  67  97 S6        29.90R
JACKSONVILLE   CLOUDY    69  66  91 SW7       29.91R
HENDERSON      CLOUDY    69  65  87 S6        29.90R
CENTER         CLOUDY    73  71  92 S3        29.91R
NACOGDOCHES    CLOUDY    72  64  78 SW7       29.88R
LUFKIN         CLOUDY    71  67  87 S6        29.90R
$$

SUPPLEMENTAL OBSERVATIONS (CENTRAL)

CITY           SKY/WX    TMP DP  RH WIND       PRES   REMARKS
CADDO GRASSLND   N/A     57  52  82 NW6G14      N/A
PAT MAYSE LAKE   N/A     59  57  94 W12         N/A
GREENVILLE       N/A     59  54  82 NW9G17      N/A
LAKE LIMESTONE   N/A     66  63  88 SW5         N/A
MCGREGOR         N/A     70  68  94 S5          N/A
TEMPLE           N/A     70  68  94 SW2         N/A
$$

SUPPLEMENTAL OBSERVATIONS (WEST)

CITY           SKY/WX    TMP DP  RH WIND       PRES   REMARKS
MILLERS CREEK    N/A     52  43  71 NW10        N/A
POSSUM KINGDOM   N/A     54  46  76 NW13        N/A
LBJ GRASSLAND    N/A     54  50  87 NW7G15      N/A
GRANBURY         N/A     57  48  72 NW14        N/A
COMANCHE         N/A     54  45  71 N14         N/A
HAMBY            N/A     52  41  66 NW7         N/A
IVIE RESERVOIR   N/A     55  43  62 NW10        N/A
COLORADO BEND    N/A     63  55  77 N7          N/A
$$

SUPPLEMENTAL OBSERVATIONS (EAST)

CITY           SKY/WX    TMP DP  RH WIND       PRES   REMARKS
CLARKSVILLE      N/A     66  63  88 SW6         N/A
TEXARKANA        N/A     70  66  88 S3          N/A
LINDEN           N/A     70  64  83 SW5         N/A
CADDO LAKE       N/A     72  64  78 SW5         N/A
GILMER           N/A     70  64  83 SW8         N/A
HENDERSON        N/A     70  64  83 SW10        N/A
LUFKIN           N/A     72  66  83 MISG        N/A
N SABINE NF      N/A     72  66  83 MISG        N/A
S SABINE NF      N/A     72  66  83 N5          N/A
$$

SUPPLEMENTAL OBSERVATIONS ARE A COLLECTION OF AUTOMATED INSTRUMENTS
THAT ARE MAINTAINED BY A VARIETY OF FEDERAL AND STATE AGENCIES.
CERTAIN ELEMENTS...SUCH AS HUMIDITY VALUES AND SUSTAINED WIND
SPEEDS...MAY BE APPROXIMATED.





USA.gov is the U.S. government's official web portal to all federal, state and local government web resources and services.